Overview Statistics Trail Chart Weather Telemetry Raw packets
 

This is the latest recevied weather packets stored in our database for station/object OK2JV-13. If no packets are shown the sender has not sent any weather packets the latest 10 day(s).

<< 1 2 3 4 5 6 7 >>
Time Temp. Humidity Pressure Rain* Wind** Luminosity Snow
1788629478 17.22° C 56% 1017.4 hPa - - - -
1788628874 17.22° C 56% 1017.3 hPa - - - -
1788628272 17.22° C 56% 1016.9 hPa - - - -
1788627666 17.78° C 52% 1017.1 hPa - - - -
1788627062 17.78° C 51% 1017.1 hPa - - - -
1788626459 17.78° C 51% 1016.8 hPa - - - -
1788625854 17.78° C 50% 1016.9 hPa - - - -
1788625250 18.33° C 50% 1016.9 hPa - - - -
1788624646 18.33° C 49% 1016.8 hPa - - - -
1788624044 18.89° C 47% 1016.6 hPa - - - -
1788623438 18.89° C 46% 1016.6 hPa - - - -
1788622836 18.89° C 44% 1016.4 hPa - - - -
1788622231 19.44° C 43% 1016.6 hPa - - - -
1788621626 19.44° C 43% 1016.6 hPa - - - -
1788621020 19.44° C 42% 1016.8 hPa - - - -
1788620419 20° C 41% 1016.5 hPa - - - -
1788619813 20° C 42% 1016.6 hPa - - - -
1788619209 20° C 41% 1016.4 hPa - - - -
1788618605 20° C 42% 1016.5 hPa - - - -
1788618001 19.44° C 43% 1016.5 hPa - - - -
1788617399 19.44° C 42% 1016.5 hPa - - - -
1788616793 19.44° C 42% 1016.6 hPa - - - -
1788616188 20° C 41% 1016.7 hPa - - - -
1788615584 20.56° C 40% 1016.9 hPa - - - -
1788614979 20.56° C 41% 1016.6 hPa - - - -

* Rain since midnight (hover to see other rain measurements)
** Current wind speed in m/s (hover to see current wind gust speed)